| time (UTC) | temp F | wind direction | speed MPH | gust MPH | rain 1hr in | rain 24hr in | rain mn in | humidity % | barometer mb |
| 20260506001503 | 58 | 49 | 7.0 | 19.0 | 0.00 | 0.00 | 0.00 | 64 | 1010.0 |
| 20260506001003 | 58 | 50 | 9.0 | 19.0 | 0.00 | 0.00 | 0.00 | 64 | 1009.6 |
| 20260506000503 | 58 | 45 | 9.0 | 19.0 | 0.00 | 0.00 | 0.00 | 64 | 1009.6 |
| 20260506000003 | 58 | 39 | 8.0 | 19.0 | 0.00 | 0.00 | 0.00 | 64 | 1009.6 |
| 20260505235503 | 58 | 37 | 8.0 | 18.0 | 0.00 | 0.00 | 0.00 | 64 | 1009.6 |
| 20260505235003 | 58 | 31 | 9.0 | 17.0 | 0.00 | 0.00 | 0.00 | 64 | 1009.6 |
| 20260505234503 | 58 | 27 | 8.0 | 15.0 | 0.00 | 0.00 | 0.00 | 63 | 1009.6 |
| 20260505234003 | 58 | 31 | 8.0 | 16.0 | 0.00 | 0.00 | 0.00 | 63 | 1009.9 |
| 20260505233503 | 58 | 20 | 8.0 | 16.0 | 0.00 | 0.00 | 0.00 | 63 | 1009.7 |
| 20260505233003 | 59 | 18 | 8.0 | 17.0 | 0.00 | 0.00 | 0.00 | 62 | 1009.6 |
| 20260505232503 | 59 | 28 | 9.0 | 17.0 | 0.00 | 0.00 | 0.00 | 62 | 1009.6 |
| 20260505232003 | 59 | 35 | 9.0 | 19.0 | 0.00 | 0.00 | 0.00 | 62 | 1009.5 |
| 20260505231503 | 59 | 41 | 9.0 | 19.0 | 0.00 | 0.00 | 0.00 | 62 | 1009.4 |
| 20260505231024 | 59 | 30 | 8.0 | 17.0 | 0.00 | 0.00 | 0.00 | 61 | 1009.5 |
| 20260505230503 | 60 | 11 | 7.0 | 15.0 | 0.00 | 0.00 | 0.00 | 61 | 1009.7 |
| 20260505230003 | 60 | 19 | 7.0 | 15.0 | 0.00 | 0.00 | 0.00 | 61 | 1009.7 |
| 20260505225524 | 60 | 31 | 7.0 | 16.0 | 0.00 | 0.00 | 0.00 | 61 | 1009.7 |
| 20260505225003 | 60 | 36 | 7.0 | 16.0 | 0.00 | 0.00 | 0.00 | 61 | 1009.8 |
| 20260505224524 | 60 | 34 | 8.0 | 16.0 | 0.00 | 0.00 | 0.00 | 61 | 1009.7 |
| 20260505224003 | 60 | 20 | 8.0 | 14.0 | 0.00 | 0.00 | 0.00 | 61 | 1009.6 |
| 20260505223503 | 60 | 18 | 7.0 | 14.0 | 0.00 | 0.00 | 0.00 | 61 | 1009.7 |
| 20260505223003 | 61 | 10 | 7.0 | 13.0 | 0.00 | 0.00 | 0.00 | 60 | 1010.2 |
| 20260505222524 | 61 | 3 | 8.0 | 15.0 | 0.00 | 0.00 | 0.00 | 60 | 1010.0 |
| 20260505222003 | 61 | 12 | 7.0 | 15.0 | 0.00 | 0.00 | 0.00 | 60 | 1009.9 |
| 20260505221503 | 62 | 7 | 6.0 | 13.0 | 0.00 | 0.00 | 0.00 | 59 | 1009.8 |
| 20260505221003 | 62 | 359 | 5.0 | 11.0 | 0.00 | 0.00 | 0.00 | 59 | 1010.1 |
| 20260505220524 | 62 | 359 | 5.0 | 11.0 | 0.00 | 0.00 | 0.00 | 58 | 1010.1 |
| 20260505220003 | 62 | 1 | 6.0 | 13.0 | 0.00 | 0.00 | 0.00 | 59 | 1010.2 |
| 20260505215503 | 63 | 2 | 6.0 | 14.0 | 0.00 | 0.00 | 0.00 | 58 | 1010.0 |
| 20260505215003 | 63 | 6 | 6.0 | 14.0 | 0.00 | 0.00 | 0.00 | 56 | 1010.3 |
| 20260505214503 | 63 | 356 | 8.0 | 13.0 | 0.00 | 0.00 | 0.00 | 56 | 1010.2 |
| 20260505214003 | 64 | 3 | 8.0 | 13.0 | 0.00 | 0.00 | 0.00 | 56 | 1010.1 |
| 20260505213524 | 64 | 14 | 7.0 | 13.0 | 0.00 | 0.00 | 0.00 | 55 | 1010.0 |
| 20260505213003 | 64 | 355 | 6.0 | 13.0 | 0.00 | 0.00 | 0.00 | 55 | 1010.0 |
| 20260505212503 | 65 | 352 | 5.0 | 13.0 | 0.00 | 0.00 | 0.00 | 55 | 1010.0 |
| 20260505212003 | 65 | 348 | 5.0 | 11.0 | 0.00 | 0.00 | 0.00 | 55 | 1010.0 |
| 20260505211503 | 64 | 338 | 7.0 | 13.0 | 0.00 | 0.00 | 0.00 | 55 | 1010.1 |
| 20260505211024 | 65 | 340 | 7.0 | 13.0 | 0.00 | 0.00 | 0.00 | 54 | 1010.0 |
| 20260505210503 | 66 | 347 | 6.0 | 15.0 | 0.00 | 0.00 | 0.00 | 54 | 1009.9 |
| 20260505210003 | 65 | 352 | 7.0 | 16.0 | 0.00 | 0.00 | 0.00 | 54 | 1009.7 |
| 20260505205503 | 66 | 348 | 8.0 | 16.0 | 0.00 | 0.00 | 0.00 | 53 | 1009.6 |
| 20260505205003 | 65 | 341 | 9.0 | 15.0 | 0.00 | 0.00 | 0.00 | 54 | 1010.0 |
| 20260505204524 | 66 | 342 | 9.0 | 16.0 | 0.00 | 0.00 | 0.00 | 53 | 1010.0 |
| 20260505204003 | 66 | 352 | 8.0 | 16.0 | 0.00 | 0.00 | 0.00 | 53 | 1010.1 |
| 20260505203503 | 66 | 348 | 7.0 | 15.0 | 0.00 | 0.00 | 0.00 | 53 | 1010.0 |
| 20260505203003 | 66 | 345 | 8.0 | 15.0 | 0.00 | 0.00 | 0.00 | 53 | 1009.9 |
| 20260505202503 | 67 | 7 | 8.0 | 24.0 | 0.00 | 0.00 | 0.00 | 52 | 1009.8 |
| 20260505202003 | 67 | 9 | 9.0 | 24.0 | 0.00 | 0.00 | 0.00 | 52 | 1009.7 |
| 20260505201503 | 67 | 360 | 8.0 | 18.0 | 0.00 | 0.00 | 0.00 | 50 | 1009.5 |
| 20260505201003 | 67 | 9 | 8.0 | 18.0 | 0.00 | 0.00 | 0.00 | 51 | 1009.3 |
| 20260505200524 | 67 | 360 | 7.0 | 17.0 | 0.00 | 0.00 | 0.00 | 49 | 1009.2 |
| 20260505200003 | 67 | 346 | 7.0 | 17.0 | 0.00 | 0.00 | 0.00 | 49 | 1009.2 |
| 20260505195524 | 68 | 348 | 7.0 | 16.0 | 0.00 | 0.00 | 0.00 | 48 | 1009.5 |
| 20260505195003 | 68 | 343 | 8.0 | 15.0 | 0.00 | 0.00 | 0.00 | 48 | 1009.4 |
| 20260505194503 | 68 | 343 | 7.0 | 15.0 | 0.00 | 0.00 | 0.00 | 47 | 1009.4 |
| 20260505194003 | 67 | 345 | 6.0 | 14.0 | 0.00 | 0.00 | 0.00 | 48 | 1009.5 |
| 20260505193503 | 67 | 347 | 6.0 | 13.0 | 0.00 | 0.00 | 0.00 | 47 | 1009.6 |
| 20260505193003 | 67 | 345 | 7.0 | 15.0 | 0.00 | 0.00 | 0.00 | 49 | 1009.4 |
| 20260505192503 | 67 | 341 | 9.0 | 17.0 | 0.00 | 0.00 | 0.00 | 48 | 1009.4 |
| 20260505192003 | 66 | 346 | 10.0 | 17.0 | 0.00 | 0.00 | 0.00 | 48 | 1009.1 |
| 20260505191503 | 66 | 350 | 9.0 | 17.0 | 0.00 | 0.00 | 0.00 | 49 | 1008.9 |
| 20260505191024 | 66 | 345 | 9.0 | 17.0 | 0.00 | 0.00 | 0.00 | 50 | 1009.0 |
| 20260505190503 | 66 | 347 | 10.0 | 17.0 | 0.00 | 0.00 | 0.00 | 49 | 1009.1 |
| 20260505190003 | 66 | 348 | 9.0 | 17.0 | 0.00 | 0.00 | 0.00 | 50 | 1009.0 |
| 20260505185503 | 66 | 349 | 9.0 | 16.0 | 0.00 | 0.00 | 0.00 | 49 | 1009.0 |
| 20260505185003 | 66 | 345 | 8.0 | 16.0 | 0.00 | 0.00 | 0.00 | 49 | 1009.5 |
| 20260505184503 | 67 | 335 | 7.0 | 15.0 | 0.00 | 0.00 | 0.00 | 49 | 1009.4 |
| 20260505184024 | 67 | 342 | 7.0 | 15.0 | 0.00 | 0.00 | 0.00 | 50 | 1009.4 |
| 20260505183503 | 66 | 349 | 8.0 | 17.0 | 0.00 | 0.00 | 0.00 | 50 | 1009.8 |
| 20260505183003 | 67 | 344 | 8.0 | 17.0 | 0.00 | 0.00 | 0.00 | 49 | 1009.9 |
| 20260505182503 | 66 | 351 | 8.0 | 15.0 | 0.00 | 0.00 | 0.00 | 49 | 1010.0 |
| 20260505182003 | 67 | 2 | 6.0 | 13.0 | 0.00 | 0.00 | 0.00 | 49 | 1010.0 |
| 20260505181503 | 67 | 351 | 6.0 | 15.0 | 0.00 | 0.00 | 0.00 | 49 | 1010.2 |
| 20260505181003 | 66 | 346 | 7.0 | 15.0 | 0.00 | 0.00 | 0.00 | 50 | 1010.3 |
| 20260505180503 | 67 | 344 | 8.0 | 16.0 | 0.00 | 0.00 | 0.00 | 50 | 1010.2 |
| 20260505180003 | 67 | 350 | 8.0 | 16.0 | 0.00 | 0.00 | 0.00 | 50 | 1009.8 |
| 20260505175524 | 67 | 355 | 7.0 | 14.0 | 0.00 | 0.00 | 0.00 | 50 | 1009.9 |
| 20260505175003 | 68 | 346 | 8.0 | 18.0 | 0.00 | 0.00 | 0.00 | 49 | 1009.7 |
| 20260505174503 | 68 | 350 | 7.0 | 18.0 | 0.00 | 0.00 | 0.00 | 49 | 1010.2 |
| 20260505174024 | 67 | 3 | 6.0 | 14.0 | 0.00 | 0.00 | 0.00 | 51 | 1009.6 |
| 20260505173524 | 66 | 3 | 6.0 | 14.0 | 0.00 | 0.00 | 0.00 | 52 | 1009.5 |
| 20260505173003 | 66 | 353 | 7.0 | 16.0 | 0.00 | 0.00 | 0.00 | 52 | 1009.2 |
| 20260505172524 | 66 | 354 | 7.0 | 16.0 | 0.00 | 0.00 | 0.00 | 54 | 1008.9 |
| 20260505172003 | 66 | 2 | 8.0 | 19.0 | 0.00 | 0.00 | 0.00 | 54 | 1008.6 |
| 20260505171503 | 66 | 350 | 9.0 | 19.0 | 0.00 | 0.00 | 0.00 | 55 | 1008.7 |
| 20260505171003 | 65 | 345 | 9.0 | 19.0 | 0.00 | 0.00 | 0.00 | 54 | 1008.9 |
| 20260505170524 | 66 | 351 | 8.0 | 19.0 | 0.00 | 0.00 | 0.00 | 54 | 1008.7 |
| 20260505170003 | 66 | 342 | 8.0 | 17.0 | 0.00 | 0.00 | 0.00 | 55 | 1009.1 |
| 20260505165503 | 65 | 339 | 10.0 | 17.0 | 0.00 | 0.00 | 0.00 | 55 | 1009.0 |
| 20260505165003 | 66 | 344 | 11.0 | 22.0 | 0.00 | 0.00 | 0.00 | 56 | 1009.0 |
| 20260505164503 | 66 | 343 | 10.0 | 22.0 | 0.00 | 0.00 | 0.00 | 56 | 1008.8 |
| 20260505164003 | 67 | 346 | 8.0 | 17.0 | 0.00 | 0.00 | 0.00 | 55 | 1008.6 |
| 20260505163524 | 67 | 347 | 8.0 | 16.0 | 0.00 | 0.00 | 0.00 | 56 | 1008.6 |
| 20260505163024 | 66 | 340 | 8.0 | 16.0 | 0.00 | 0.00 | 0.00 | 58 | 1008.6 |
| 20260505162503 | 66 | 343 | 8.0 | 18.0 | 0.00 | 0.00 | 0.00 | 58 | 1008.4 |
| 20260505162003 | 66 | 349 | 9.0 | 18.0 | 0.00 | 0.00 | 0.00 | 59 | 1008.1 |
| 20260505161503 | 66 | 351 | 8.0 | 16.0 | 0.00 | 0.00 | 0.00 | 59 | 1007.9 |
| 20260505161003 | 66 | 348 | 8.0 | 17.0 | 0.00 | 0.00 | 0.00 | 61 | 1007.8 |
| 20260505160503 | 66 | 345 | 8.0 | 17.0 | 0.00 | 0.00 | 0.00 | 61 | 1007.7 |
| 20260505153024 | 68 | 338 | 10.0 | 16.0 | 0.00 | 0.00 | 0.00 | 62 | 1007.0 |
| 20260505152503 | 68 | 335 | 10.0 | 16.0 | 0.00 | 0.00 | 0.00 | 63 | 1006.8 |
| 20260505152024 | 68 | 334 | 10.0 | 16.0 | 0.00 | 0.00 | 0.00 | 64 | 1006.7 |
| 20260505151503 | 69 | 332 | 11.0 | 19.0 | 0.00 | 0.00 | 0.00 | 64 | 1006.6 |
| 20260505151003 | 69 | 333 | 11.0 | 19.0 | 0.00 | 0.00 | 0.00 | 63 | 1006.2 |
| 20260505150503 | 69 | 336 | 10.0 | 17.0 | 0.00 | 0.00 | 0.00 | 64 | 1006.1 |
| 20260505140503 | 68 | 342 | 9.0 | 17.0 | 0.00 | 0.00 | 0.00 | 65 | 1005.7 |
| 20260505125003 | 71 | 299 | 5.0 | 11.0 | 0.00 | 0.00 | 0.00 | 30 | 1003.4 |
| 20260505124524 | 70 | 289 | 4.0 | 9.0 | 0.00 | 0.00 | 0.00 | 30 | 1003.5 |
| 20260505124003 | 70 | 285 | 3.0 | 9.0 | 0.00 | 0.00 | 0.00 | 31 | 1003.3 |
| 20260505123503 | 70 | 284 | 3.0 | 9.0 | 0.00 | 0.00 | 0.00 | 31 | 1003.4 |
| 20260505123003 | 70 | 286 | 3.0 | 8.0 | 0.00 | 0.00 | 0.00 | 30 | 1003.0 |
| 20260505122503 | 70 | 288 | 3.0 | 8.0 | 0.00 | 0.00 | 0.00 | 31 | 1003.0 |
| 20260505122003 | 70 | 276 | 3.0 | 8.0 | 0.00 | 0.00 | 0.00 | 30 | 1002.8 |
| 20260505121503 | 70 | 244 | 2.0 | 8.0 | 0.00 | 0.00 | 0.00 | 30 | 1002.7 |
| 20260505121003 | 70 | 229 | 2.0 | 8.0 | 0.00 | 0.00 | 0.00 | 30 | 1002.7 |
| 20260505120503 | 70 | 228 | 2.0 | 7.0 | 0.00 | 0.00 | 0.00 | 30 | 1002.6 |
| 20260505120003 | 70 | 224 | 1.0 | 7.0 | 0.00 | 0.00 | 0.00 | 30 | 1002.5 |
| 20260505115503 | 71 | 222 | 1.0 | 6.0 | 0.00 | 0.00 | 0.00 | 30 | 1002.6 |
| 20260505115003 | 71 | 235 | 1.0 | 6.0 | 0.00 | 0.00 | 0.00 | 30 | 1002.5 |
| 20260505114503 | 71 | 238 | 1.0 | 7.0 | 0.00 | 0.00 | 0.00 | 30 | 1002.4 |
| 20260505114003 | 71 | 223 | 1.0 | 7.0 | 0.00 | 0.00 | 0.00 | 29 | 1002.4 |
| 20260505113503 | 72 | 223 | 2.0 | 6.0 | 0.00 | 0.00 | 0.00 | 29 | 1002.3 |
| 20260505113024 | 72 | 237 | 2.0 | 10.0 | 0.00 | 0.00 | 0.00 | 29 | 1002.2 |
| 20260505112503 | 72 | 231 | 3.0 | 10.0 | 0.00 | 0.00 | 0.00 | 29 | 1002.2 |
| 20260505112003 | 72 | 215 | 4.0 | 9.0 | 0.00 | 0.00 | 0.00 | 29 | 1001.9 |
| 20260505111503 | 72 | 210 | 4.0 | 9.0 | 0.00 | 0.00 | 0.00 | 29 | 1001.9 |
| 20260505111003 | 72 | 208 | 3.0 | 9.0 | 0.00 | 0.00 | 0.00 | 29 | 1001.8 |
| 20260505110524 | 72 | 222 | 3.0 | 8.0 | 0.00 | 0.00 | 0.00 | 29 | 1001.8 |
| 20260505102003 | 73 | 207 | 3.0 | 9.0 | 0.00 | 0.00 | 0.00 | 27 | 1001.5 |
| 20260505101503 | 73 | 202 | 4.0 | 9.0 | 0.00 | 0.00 | 0.00 | 26 | 1001.4 |
| 20260505101024 | 73 | 204 | 4.0 | 9.0 | 0.00 | 0.00 | 0.00 | 26 | 1001.4 |
| 20260505100503 | 73 | 206 | 4.0 | 9.0 | 0.00 | 0.00 | 0.00 | 26 | 1001.5 |
| 20260505100003 | 73 | 204 | 4.0 | 9.0 | 0.00 | 0.00 | 0.00 | 27 | 1001.4 |
| 20260505095503 | 73 | 204 | 4.0 | 9.0 | 0.00 | 0.00 | 0.00 | 27 | 1001.4 |
| 20260505095003 | 73 | 201 | 4.0 | 9.0 | 0.00 | 0.00 | 0.00 | 27 | 1001.4 |
| 20260505094503 | 73 | 201 | 4.0 | 9.0 | 0.00 | 0.00 | 0.00 | 27 | 1001.3 |
| 20260505094003 | 73 | 199 | 5.0 | 9.0 | 0.00 | 0.00 | 0.00 | 27 | 1001.3 |
| 20260505093524 | 73 | 199 | 4.0 | 9.0 | 0.00 | 0.00 | 0.00 | 27 | 1001.3 |
| 20260505093003 | 73 | 197 | 4.0 | 9.0 | 0.00 | 0.00 | 0.00 | 27 | 1001.2 |
| 20260505092503 | 73 | 196 | 4.0 | 9.0 | 0.00 | 0.00 | 0.00 | 27 | 1001.0 |
| 20260505092003 | 73 | 197 | 5.0 | 11.0 | 0.00 | 0.00 | 0.00 | 27 | 1001.1 |
| 20260505091503 | 73 | 198 | 5.0 | 11.0 | 0.00 | 0.00 | 0.00 | 27 | 1001.1 |
| 20260505091003 | 73 | 199 | 4.0 | 10.0 | 0.00 | 0.00 | 0.00 | 27 | 1001.2 |
| 20260505090503 | 73 | 199 | 4.0 | 10.0 | 0.00 | 0.00 | 0.00 | 27 | 1001.3 |
| 20260505090003 | 73 | 199 | 4.0 | 12.0 | 0.00 | 0.00 | 0.00 | 27 | 1001.2 |
| 20260505085503 | 73 | 204 | 4.0 | 12.0 | 0.00 | 0.00 | 0.00 | 27 | 1001.3 |
| 20260505085003 | 73 | 201 | 5.0 | 12.0 | 0.00 | 0.00 | 0.00 | 28 | 1001.3 |
| 20260505084503 | 73 | 193 | 5.0 | 11.0 | 0.00 | 0.00 | 0.00 | 28 | 1001.4 |
| 20260505084003 | 73 | 192 | 4.0 | 10.0 | 0.00 | 0.00 | 0.00 | 28 | 1001.4 |
| 20260505083503 | 73 | 194 | 4.0 | 7.0 | 0.00 | 0.00 | 0.00 | 28 | 1001.3 |
| 20260505083003 | 74 | 196 | 3.0 | 8.0 | 0.00 | 0.00 | 0.00 | 28 | 1001.5 |
| 20260505082524 | 74 | 198 | 3.0 | 8.0 | 0.00 | 0.00 | 0.00 | 28 | 1001.4 |
| 20260505082003 | 74 | 198 | 2.0 | 6.0 | 0.00 | 0.00 | 0.00 | 28 | 1001.5 |
| 20260505081503 | 74 | 191 | 2.0 | 6.0 | 0.00 | 0.00 | 0.00 | 28 | 1001.6 |
| 20260505081003 | 74 | 194 | 3.0 | 9.0 | 0.00 | 0.00 | 0.00 | 28 | 1001.5 |
| 20260505080503 | 74 | 197 | 3.0 | 9.0 | 0.00 | 0.00 | 0.00 | 29 | 1001.7 |
| 20260505080003 | 74 | 195 | 4.0 | 8.0 | 0.00 | 0.00 | 0.00 | 29 | 1001.7 |
| 20260505075503 | 74 | 194 | 4.0 | 8.0 | 0.00 | 0.00 | 0.00 | 29 | 1001.7 |
| 20260505075003 | 74 | 193 | 3.0 | 7.0 | 0.00 | 0.00 | 0.00 | 29 | 1001.7 |
| 20260505074503 | 74 | 197 | 3.0 | 7.0 | 0.00 | 0.00 | 0.00 | 28 | 1001.8 |
| 20260505074003 | 75 | 198 | 3.0 | 7.0 | 0.00 | 0.00 | 0.00 | 28 | 1001.9 |
| 20260505073524 | 75 | 198 | 4.0 | 7.0 | 0.00 | 0.00 | 0.00 | 27 | 1001.9 |
| 20260505073003 | 76 | 203 | 2.0 | 7.0 | 0.00 | 0.00 | 0.00 | 27 | 1002.0 |
| 20260505072503 | 76 | 209 | 2.0 | 5.0 | 0.00 | 0.00 | 0.00 | 26 | 1001.8 |
| 20260505072003 | 76 | 209 | 2.0 | 6.0 | 0.00 | 0.00 | 0.00 | 26 | 1001.9 |
| 20260505071503 | 77 | 202 | 4.0 | 9.0 | 0.00 | 0.00 | 0.00 | 26 | 1002.0 |
| 20260505071003 | 77 | 196 | 4.0 | 9.0 | 0.00 | 0.00 | 0.00 | 25 | 1002.1 |
| 20260505070503 | 78 | 198 | 3.0 | 7.0 | 0.00 | 0.00 | 0.00 | 25 | 1002.1 |
| 20260505070003 | 78 | 198 | 3.0 | 9.0 | 0.00 | 0.00 | 0.00 | 24 | 1002.0 |
| 20260505065524 | 78 | 198 | 3.0 | 9.0 | 0.00 | 0.00 | 0.00 | 24 | 1002.3 |
| 20260505065003 | 79 | 225 | 2.0 | 7.0 | 0.00 | 0.00 | 0.00 | 23 | 1002.2 |
| 20260505064503 | 79 | 256 | 2.0 | 7.0 | 0.00 | 0.00 | 0.00 | 23 | 1002.1 |
| 20260505064003 | 79 | 261 | 2.0 | 6.0 | 0.00 | 0.00 | 0.00 | 23 | 1002.2 |
| 20260505063503 | 79 | 265 | 2.0 | 9.0 | 0.00 | 0.00 | 0.00 | 23 | 1002.3 |
| 20260505063003 | 79 | 262 | 2.0 | 9.0 | 0.00 | 0.00 | 0.00 | 24 | 1002.3 |
| 20260505062503 | 79 | 250 | 2.0 | 9.0 | 0.00 | 0.00 | 0.00 | 24 | 1002.4 |
| 20260505062003 | 79 | 249 | 2.0 | 6.0 | 0.00 | 0.00 | 0.00 | 24 | 1002.4 |
| 20260505061503 | 79 | 243 | 2.0 | 7.0 | 0.00 | 0.00 | 0.00 | 24 | 1002.5 |
| 20260505061003 | 79 | 235 | 1.0 | 7.0 | 0.00 | 0.00 | 0.00 | 25 | 1002.6 |
| 20260505060503 | 78 | 209 | 1.0 | 7.0 | 0.00 | 0.00 | 0.00 | 25 | 1002.7 |
| 20260505060003 | 78 | 191 | 2.0 | 7.0 | 0.00 | 0.00 | 0.00 | 25 | 1002.7 |
| 20260505055503 | 78 | 199 | 2.0 | 6.0 | 0.00 | 0.00 | 0.00 | 26 | 1002.6 |
| 20260505055003 | 78 | 206 | 2.0 | 7.0 | 0.00 | 0.00 | 0.00 | 26 | 1002.6 |
| 20260505054524 | 78 | 205 | 2.0 | 7.0 | 0.00 | 0.00 | 0.00 | 26 | 1002.8 |
| 20260505054003 | 78 | 202 | 2.0 | 7.0 | 0.00 | 0.00 | 0.00 | 26 | 1002.7 |
| 20260505053524 | 78 | 203 | 2.0 | 7.0 | 0.00 | 0.00 | 0.00 | 26 | 1002.8 |
| 20260505053003 | 79 | 201 | 2.0 | 6.0 | 0.00 | 0.00 | 0.00 | 26 | 1002.7 |
| 20260505052503 | 79 | 196 | 3.0 | 7.0 | 0.00 | 0.00 | 0.00 | 26 | 1002.8 |
| 20260505052003 | 79 | 200 | 3.0 | 8.0 | 0.00 | 0.00 | 0.00 | 25 | 1002.8 |
| 20260505051503 | 79 | 203 | 3.0 | 8.0 | 0.00 | 0.00 | 0.00 | 25 | 1002.7 |
| 20260505051003 | 80 | 201 | 3.0 | 8.0 | 0.00 | 0.00 | 0.00 | 25 | 1002.8 |
| 20260505050503 | 80 | 206 | 3.0 | 9.0 | 0.00 | 0.00 | 0.00 | 25 | 1002.8 |
| 20260505041503 | 82 | 216 | 3.0 | 8.0 | 0.00 | 0.00 | 0.00 | 23 | 1002.9 |
| 20260505041003 | 82 | 207 | 4.0 | 10.0 | 0.00 | 0.00 | 0.00 | 23 | 1002.8 |
| 20260505040503 | 82 | 205 | 4.0 | 10.0 | 0.00 | 0.00 | 0.00 | 23 | 1002.9 |
| 20260505040024 | 82 | 203 | 4.0 | 10.0 | 0.00 | 0.00 | 0.00 | 22 | 1002.9 |
| 20260505035503 | 82 | 200 | 4.0 | 10.0 | 0.00 | 0.00 | 0.00 | 22 | 1002.8 |
| 20260505035003 | 82 | 199 | 4.0 | 10.0 | 0.00 | 0.00 | 0.00 | 22 | 1002.7 |
| 20260505034503 | 83 | 201 | 5.0 | 10.0 | 0.00 | 0.00 | 0.00 | 21 | 1002.7 |
| 20260505034003 | 83 | 204 | 5.0 | 10.0 | 0.00 | 0.00 | 0.00 | 21 | 1002.7 |
| 20260505033503 | 83 | 203 | 4.0 | 10.0 | 0.00 | 0.00 | 0.00 | 21 | 1002.6 |
| 20260505033003 | 83 | 206 | 4.0 | 11.0 | 0.00 | 0.00 | 0.00 | 21 | 1002.6 |
| 20260505032503 | 84 | 209 | 5.0 | 11.0 | 0.00 | 0.00 | 0.00 | 20 | 1002.7 |
| 20260505032003 | 84 | 212 | 4.0 | 10.0 | 0.00 | 0.00 | 0.00 | 20 | 1002.7 |
| 20260505031524 | 84 | 206 | 3.0 | 8.0 | 0.00 | 0.00 | 0.00 | 20 | 1002.5 |
| 20260505031003 | 84 | 208 | 3.0 | 8.0 | 0.00 | 0.00 | 0.00 | 20 | 1002.6 |
| 20260505030503 | 84 | 214 | 3.0 | 9.0 | 0.00 | 0.00 | 0.00 | 20 | 1002.5 |
| 20260505030003 | 84 | 210 | 3.0 | 10.0 | 0.00 | 0.00 | 0.00 | 19 | 1002.5 |
| 20260505025503 | 85 | 223 | 3.0 | 10.0 | 0.00 | 0.00 | 0.00 | 19 | 1002.3 |
| 20260505025024 | 85 | 230 | 3.0 | 9.0 | 0.00 | 0.00 | 0.00 | 20 | 1002.4 |
| 20260505024524 | 85 | 217 | 4.0 | 11.0 | 0.00 | 0.00 | 0.00 | 20 | 1002.5 |
| 20260505024024 | 85 | 209 | 4.0 | 11.0 | 0.00 | 0.00 | 0.00 | 20 | 1002.5 |
| 20260505023503 | 84 | 207 | 5.0 | 10.0 | 0.00 | 0.00 | 0.00 | 21 | 1002.4 |
| 20260505023024 | 84 | 200 | 5.0 | 15.0 | 0.00 | 0.00 | 0.00 | 22 | 1002.3 |
| 20260505022503 | 84 | 191 | 6.0 | 15.0 | 0.00 | 0.00 | 0.00 | 26 | 1002.4 |
| 20260505022024 | 84 | 189 | 5.0 | 11.0 | 0.00 | 0.00 | 0.00 | 31 | 1002.3 |
| 20260505021503 | 85 | 195 | 6.0 | 10.0 | 0.00 | 0.00 | 0.00 | 30 | 1002.3 |
| 20260505021003 | 85 | 194 | 7.0 | 18.0 | 0.00 | 0.00 | 0.00 | 32 | 1002.4 |
| 20260505020503 | 85 | 191 | 9.0 | 20.0 | 0.00 | 0.00 | 0.00 | 33 | 1002.3 |
| 20260505020003 | 85 | 187 | 10.0 | 20.0 | 0.00 | 0.00 | 0.00 | 34 | 1002.3 |
| 20260505015503 | 85 | 178 | 11.0 | 20.0 | 0.00 | 0.00 | 0.00 | 36 | 1002.3 |
| 20260505015003 | 85 | 178 | 11.0 | 20.0 | 0.00 | 0.00 | 0.00 | 37 | 1002.0 |
| 20260505014524 | 85 | 179 | 11.0 | 17.0 | 0.00 | 0.00 | 0.00 | 37 | 1002.1 |
| 20260505014024 | 86 | 177 | 10.0 | 19.0 | 0.00 | 0.00 | 0.00 | 36 | 1002.0 |
| 20260505013503 | 86 | 177 | 10.0 | 19.0 | 0.00 | 0.00 | 0.00 | 33 | 1002.1 |
| 20260505013003 | 86 | 181 | 9.0 | 16.0 | 0.00 | 0.00 | 0.00 | 31 | 1002.0 |
| 20260505012524 | 87 | 182 | 9.0 | 14.0 | 0.00 | 0.00 | 0.00 | 29 | 1002.0 |
| 20260505012003 | 87 | 178 | 8.0 | 14.0 | 0.00 | 0.00 | 0.00 | 29 | 1001.8 |
| 20260505011503 | 87 | 178 | 8.0 | 15.0 | 0.00 | 0.00 | 0.00 | 29 | 1001.7 |
| 20260505011024 | 87 | 181 | 8.0 | 15.0 | 0.00 | 0.00 | 0.00 | 29 | 1001.7 |
| 20260505010503 | 88 | 186 | 7.0 | 13.0 | 0.00 | 0.00 | 0.00 | 29 | 1001.5 |
| 20260505010003 | 88 | 185 | 8.0 | 16.0 | 0.00 | 0.00 | 0.00 | 28 | 1001.5 |
| 20260505005503 | 88 | 183 | 8.0 | 16.0 | 0.00 | 0.00 | 0.00 | 28 | 1001.6 |
| 20260505005004 | 88 | 183 | 8.0 | 15.0 | 0.00 | 0.00 | 0.00 | 28 | 1001.5 |
| 20260505004503 | 88 | 185 | 8.0 | 15.0 | 0.00 | 0.00 | 0.00 | 28 | 1001.5 |
| 20260505004003 | 88 | 187 | 9.0 | 17.0 | 0.00 | 0.00 | 0.00 | 28 | 1001.7 |
| 20260505003524 | 89 | 187 | 9.0 | 20.0 | 0.00 | 0.00 | 0.00 | 27 | 1001.7 |
| 20260505003003 | 89 | 185 | 10.0 | 20.0 | 0.00 | 0.00 | 0.00 | 27 | 1001.7 |
| 20260505002503 | 89 | 187 | 9.0 | 16.0 | 0.00 | 0.00 | 0.00 | 27 | 1001.8 |
| 20260505002003 | 89 | 189 | 9.0 | 16.0 | 0.00 | 0.00 | 0.00 | 27 | 1002.0 |